Regional Weather Roundup
Issued by NWS Northern Indiana

Home | Current Version | Previous Version | Graphics & Text | Print | Product List | Glossary On
Versions: 1 2 3 4 5 6 7 8 9 10 11 12 13 14 15 16 17 18 19 20 21 22 23 24 25 26 27 28 29 30 31 32 33 34 35 36 37 38 39 40 41 42 43 44 45 46 47 48 49 50
000
ASUS43 KIWX 050010
RWRIWX

KIWX WEATHER ROUNDUP
NATIONAL WEATHER SERVICE NORTHERN INDIANA
800 PM EDT TUE AUG 04 2015

NOTE: "FAIR" INDICATES FEW OR NO CLOUDS BELOW 12,000 FEET WITH NO
SIGNIFICANT WEATHER AND/OR OBSTRUCTIONS TO VISIBILITY.

* THESE STATIONS ARE NOT UNDER NWS QUALITY CONTROL. THEY ALSO MAY NOT
  REPORT WEATHER SUCH AS PRECIPITATION OR FOG.

INZ001>027-050100-
NORTHERN INDIANA

CITY           SKY/WX    TMP DP  RH WIND       PRES   REMARKS
GARY*          PTSUNNY   77  57  50 NE8       29.95S
VALPARAISO     PTSUNNY   76  58  53 CALM      29.95F
6HR MIN TEMP:  75; 6HR MAX TEMP:  81;

MICHIGAN CITY* PTSUNNY   73  52  46 N3        29.96S
LAPORTE*       MOCLDY    76  56  49 N8        29.96S
6HR MIN TEMP:  76; 6HR MAX TEMP:  82;

KNOX*          MOCLDY    73  55  53 W8        29.93F
SOUTH BEND     MOCLDY    76  55  48 N8        29.96F
6HR MIN TEMP:  76; 6HR MAX TEMP:  81;

ELKHART*       MOCLDY    75  52  43 NW3       29.96F
GOSHEN         MOCLDY    74  58  57 NW6       29.95F
6HR MIN TEMP:  74; 6HR MAX TEMP:  79;

MONTICELLO*    PTCLDY    76  62  60 W3        29.95S
6HR MIN TEMP:  76; 6HR MAX TEMP:  80;

LOGANSPORT*    PTCLDY    73  54  49 W3        29.96S
ROCHESTER*     MOCLDY    77  57  50 CALM      29.95F
WARSAW*        MOCLDY    73  59  60 W5        29.95S
ANGOLA*        CLEAR     73  64  73 CALM      29.96S
FORT WAYNE     MOCLDY    76  61  59 W5        29.96F
6HR MIN TEMP:  76; 6HR MAX TEMP:  81;

HUNTINGTON*    PTCLDY    74  58  56 CALM      29.95F
6HR MIN TEMP:  74; 6HR MAX TEMP:  80;

PERU/GRISSOM   PTCLDY    76  62  61 W6        29.96S
6HR MIN TEMP:  76; 6HR MAX TEMP:  81;

MARION*        PTCLDY    74  59  59 CALM      29.98R
6HR MIN TEMP:  52; 6HR MAX TEMP:  89;


$$
INZ028>050-050100-
CENTRAL INDIANA

CITY           SKY/WX    TMP DP  RH WIND       PRES   REMARKS
LAFAYETTE      MOCLDY    75  61  61 NW6       29.96R
6HR MIN TEMP:  75; 6HR MAX TEMP:  80;

KOKOMO*        PTCLDY    77  59  53 W6        29.97R
6HR MIN TEMP:  77; 6HR MAX TEMP:  81;

MUNCIE*        PTCLDY    72  59  63 NW5       29.98S
6HR MIN TEMP:  72; 6HR MAX TEMP:  79;

INDIANAPOLIS   MOCLDY    77  56  48 NW7       29.98R
6HR MIN TEMP:  77; 6HR MAX TEMP:  83;


$$
MIZ043>046-050>051-056>058-064>065-071>073-077>080-050100-
SOUTHWEST LOWER MICHIGAN

CITY           SKY/WX    TMP DP  RH WIND       PRES   REMARKS
BATTLE CREEK   PTCLDY    74  58  57 W9        29.97R
BENTON HARBOR  MOCLDY    73  57  57 VRB3      29.96S
6HR MIN TEMP:  73; 6HR MAX TEMP:  78;

COLDWATER*     PTCLDY    72  55  54 W3        29.96S
6HR MIN TEMP:  72; 6HR MAX TEMP:  78;

HILLSDALE*     PTCLDY    73  55  53 W5        29.96F
HOLLAND        PTCLDY    74  54  49 NW7       29.96F
6HR MIN TEMP:  74; 6HR MAX TEMP:  79;

GRAND RAPIDS   PTCLDY    74  52  46 NW12      29.95S
6HR MIN TEMP:  74; 6HR MAX TEMP:  80;

KALAMAZOO      PTCLDY    74  55  51 NW9       29.96S
6HR MIN TEMP:  74; 6HR MAX TEMP:  81;

STURGIS*       MOCLDY    72  57  60 NW3       29.95F
THREE RIVERS*  FAIR      74  56  52 NW6       29.96S
6HR MIN TEMP:  74; 6HR MAX TEMP:  79;


$$
OHZ001>008-015>018-024>025-050100-
NORTHWEST OHIO

CITY           SKY/WX    TMP DP  RH WIND       PRES   REMARKS
WAUSEON*       FAIR      73  59  60 NW6       29.95S
DEFIANCE       MOCLDY    76  59  55 NW6       29.95S
6HR MIN TEMP:  76; 6HR MAX TEMP:  83;

FINDLAY        MOCLDY    76  61  59 W6        29.95R
6HR MIN TEMP:  76; 6HR MAX TEMP:  83;

TOLEDO EXPRESS PTCLDY    76  57  51 W7        29.93F
6HR MIN TEMP:  76; 6HR MAX TEMP:  81;

TOLEDO METCALF PTCLDY    77  56  48 NW8       29.94S
6HR MIN TEMP:  77; 6HR MAX TEMP:  82;

LIMA           MOCLDY    75  57  53 W8        29.96S
6HR MIN TEMP:  75; 6HR MAX TEMP:  80;


$$
AND FOR LAKE MICHIGAN COASTAL AND OPEN LAKE BUOY OBSERVATIONS

STATION/POSITION TEMP    WIND        PRES    VSBY  WAVE
                 AIR SEA DIR/SP/G                  HT/PER
                 (F)     (DEG/KT/KT) (MB)    (MI)  (FT/S)
CALUMET HARBOR    75      40/  6/  8   N/A
MICHIGAN CITY     75      20/  3/  4   N/A
BURNS HARBOR      77      60/  6/  8 1014.6F
SAINT JOSEPH      74     360/  6/ 10 1015.2R
4 MI NW BRIDGMAN  72 74   50/ 12/ 12   N/A           1
MICHIGAN CITY     75 75   20/  6/  8   N/A           1

$$
&&



USA.gov is the U.S. government's official web portal to all federal, state and local government web resources and services.